Pagrindinis puslapis
METAR-TAF:

METAR-TAF

Oro uostai :

Sierra Blanca Regional Airport

Ruidoso, Naujoji Meksika, Jungtinės Amerikos Valstijos

platuma: 33-28N, ilguma: 105-32W, Aukštis: 2076 m

Dabartinis oras

Ataskaita buvo paskelbta 21 minutes, ne 03:55 UTC
Vėjas 9 kt iš Pietryčių
Temperatūra 13°C
Drėgmė 72%
Slėgis 1026 hPa
Matomumas: 16.1 km
Giedras dangus

METAR: KSRR 140355Z AUTO 14009KT 10SM CLR 13/08 A3031 RMK AO2

Laikas: 22:16 (04:16 UTC)


TAF: trūkstamas

Orai ataskaitas ir orų prognozės (METAR, TAF).

turimą stotys yra geltonos ir raudonos taškus žemėlapyje.

Perkelti pele per norėdami pamatyti stoties vardą.

Tada spustelėkite, norėdami matyti oro stebėjimo ir prognozės.

Norėdami pakeisti žemėlapį: spustelėkite ant žalios mygtukų su juodo kryžiaus žemyn,; žalią mygtuką su brūkšneliu, jei norite nutolinti; arba žalių rodyklių gretimoms žemėlapius.


METAR-TAF: